Offutt AFB, NE

9:49 PM CST on December 09, 2016 (GMT -0600)
Offutt Air Force Base

Weather History for KOFF - June, 2013

Change the Weather History Date:

Monday, June 24, 2013

  Actual Average Record
Temperature  
Mean Temperature 74 °F -  
Max Temperature 82 °F 82 °F 95 °F (2001)
Min Temperature 66 °F 62 °F 53 °F (2004)
Cooling Degree Days 9    
Growing Degree Days 24 (Base 50)    
Moisture  
Dew Point 70 °F    
Average Humidity 89    
Maximum Humidity 100    
Minimum Humidity 70    
Precipitation  
Precipitation 0.98 in - - ()
Sea Level Pressure  
Sea Level Pressure 29.86 in    
Wind  
Wind Speed 8 mph (ESE)    
Max Wind Speed 33 mph    
Max Gust Speed 46 mph    
Visibility 8 miles    
Events Fog , Rain , Thunderstorm    
Averages and records for this station are not official NWS values.
T = Trace of Precipitation, MM = Missing Value Source: NWS Daily Summary

Daily Weather History Graph

Daily Weather History Graph

Search for Another Location

Airport or City:

Trip Planner

Search our weather history database for the weather conditions in past years. The results will help you decide how hot, cold, wet, or windy it might be!

Date:

Astronomy

Jun. 24, 2013 Rise Set
Actual Time 5:52 AM CDT 9:00 PM CDT
Civil Twilight 5:18 AM CDT 9:33 PM CDT
Nautical Twilight 4:35 AM CDT 10:17 PM CDT
Astronomical Twilight 3:43 AM CDT 11:08 PM CDT
Moon 10:01 PM CDT (6/24) 7:21 AM CDT (6/24)
Length of Visible Light 16h 15m
Length of Day
15h 08m
Full, 98% of the Moon is Illuminated
Jun 24
Full
Jun 29
Last Quarter
Jul 8
New
Jul 15
First Quarter
Jul 22
Full

Hourly Weather History & Observations

Time (CDT) Temp. Heat Index Dew Point Humidity Pressure Visibility Wind Dir Wind Speed Gust Speed Precip Events Conditions
12:58 AM 73.0 °F - 72.5 °F 98% 29.85 in 10.0 mi ENE 3.5 mph - N/A   Clear
1:58 AM 73.0 °F - 72.9 °F 99% 29.85 in 10.0 mi NE 5.8 mph - N/A   Mostly Cloudy
2:58 AM 75.0 °F - 73.2 °F 94% 29.86 in 10.0 mi East 10.4 mph - N/A   Partly Cloudy
3:30 AM 75.2 °F - 71.6 °F 89% 29.87 in 10.0 mi ESE 5.8 mph - N/A Rain Light Rain
3:34 AM 75.2 °F - 71.6 °F 89% 29.88 in 10.0 mi ESE 5.8 mph - N/A Rain Light Rain
3:38 AM 75.2 °F - 71.6 °F 89% 29.88 in 10.0 mi ESE 5.8 mph - N/A   Clear
3:58 AM 74.8 °F - 72.3 °F 92% 29.86 in 10.0 mi SE 5.8 mph - 0.00 in   Clear
4:58 AM 75.2 °F - 71.1 °F 87% 29.86 in 10.0 mi SE 6.9 mph - N/A   Clear
5:30 AM 75.2 °F - 71.6 °F 89% 29.86 in 10.0 mi ESE 5.8 mph - N/A Thunderstorm Mostly Cloudy
5:37 AM 75.2 °F - 71.6 °F 89% 29.86 in 8.0 mi SE 4.6 mph - N/A Rain , Thunderstorm Rain Showers
5:42 AM 75.2 °F - 71.6 °F 89% 29.86 in 4.0 mi SSE 8.1 mph - N/A Rain , Thunderstorm Heavy Rain Showers
5:47 AM 73.4 °F - 71.6 °F 94% 29.87 in 5.0 mi ESE 6.9 mph - N/A Rain , Thunderstorm Light Rain Showers
5:52 AM 73.4 °F - 71.6 °F 94% 29.87 in 6.0 mi ESE 8.1 mph - N/A Rain , Thunderstorm Light Rain Showers
5:58 AM 73.8 °F - 72.1 °F 95% 29.86 in 8.0 mi ESE 6.9 mph - 0.11 in Rain , Thunderstorm Light Rain
6:06 AM 73.4 °F - 71.6 °F 94% 29.86 in 10.0 mi ESE 9.2 mph - N/A   Mostly Cloudy
6:58 AM 74.5 °F - 70.9 °F 88% 29.85 in 10.0 mi ESE 8.1 mph - 0.00 in   Partly Cloudy
7:03 AM 75.2 °F - 71.6 °F 89% 29.87 in 10.0 mi ESE 8.1 mph - N/A Rain Light Rain
7:04 AM 75.2 °F - 71.6 °F 89% 29.87 in 10.0 mi ESE 8.1 mph - N/A Rain , Thunderstorm Light Thunderstorms and Rain
7:13 AM 75.2 °F - 71.6 °F 89% 29.87 in 10.0 mi ESE 8.1 mph - N/A Thunderstorm Thunderstorm
7:26 AM 75.2 °F - 71.6 °F 89% 29.87 in 10.0 mi ESE 6.9 mph - N/A Thunderstorm Mostly Cloudy
7:52 AM 75.2 °F - 71.6 °F 89% 29.89 in 10.0 mi SE 5.8 mph - N/A Rain , Thunderstorm Light Thunderstorms and Rain
7:58 AM 74.7 °F - 71.6 °F 90% 29.88 in 10.0 mi SE 4.6 mph - 0.00 in Rain , Thunderstorm Light Thunderstorms and Rain
8:00 AM 75.2 °F - 71.6 °F 89% 29.89 in 10.0 mi SE 3.5 mph - N/A Rain , Thunderstorm Light Thunderstorms and Rain
8:08 AM 75.2 °F - 73.4 °F 94% 29.90 in 10.0 mi SE 4.6 mph - N/A Rain Light Rain
8:09 AM 75.2 °F - 73.4 °F 94% 29.90 in 10.0 mi SE 5.8 mph - N/A   Scattered Clouds
8:11 AM 75.2 °F - 73.4 °F 94% 29.90 in 9.0 mi SE 5.8 mph - N/A Rain Light Rain
8:27 AM 75.2 °F - 73.4 °F 94% 29.89 in 10.0 mi SSE 3.5 mph - N/A   Scattered Clouds
8:58 AM 75.7 °F - 72.9 °F 91% 29.87 in 10.0 mi SE 8.1 mph - 0.03 in   Partly Cloudy
8:59 AM 75.2 °F - 73.4 °F 94% 29.88 in 10.0 mi SE 8.1 mph - N/A Rain Light Rain
9:16 AM 75.2 °F - 73.4 °F 94% 29.90 in 10.0 mi SE 6.9 mph - N/A   Scattered Clouds
9:54 AM 75.2 °F - 71.6 °F 89% 29.94 in 3.7 mi SSW 12.7 mph - N/A Rain , Thunderstorm Light Thunderstorms and Rain
9:58 AM 75.2 °F - 71.6 °F 89% 29.96 in 1.2 mi West 33.4 mph 40.3 mph 0.01 in Rain , Thunderstorm Light Thunderstorms and Rain
10:01 AM 73.4 °F - 69.8 °F 88% 29.99 in 0.2 mi West 18.4 mph 46.0 mph N/A Fog , Rain , Thunderstorm Heavy Thunderstorms and Rain
10:06 AM 68.0 °F - 66.2 °F 94% 29.99 in 0.2 mi West 15.0 mph 46.0 mph N/A Fog , Rain , Thunderstorm Heavy Thunderstorms and Rain
10:11 AM 66.2 °F - 64.4 °F 94% 29.96 in 1.0 mi NW 13.8 mph 27.6 mph N/A Rain , Thunderstorm Heavy Thunderstorms and Rain
10:16 AM 66.2 °F - 64.4 °F 94% 29.94 in 1.5 mi NW 13.8 mph - N/A Rain , Thunderstorm Heavy Thunderstorms and Rain
10:21 AM 66.2 °F - 66.2 °F 100% 29.94 in 2.5 mi NW 11.5 mph - N/A Rain , Thunderstorm Thunderstorms and Rain
10:26 AM 66.2 °F - 66.2 °F 100% 29.94 in 8.0 mi NNW 5.8 mph - N/A Rain , Thunderstorm Light Thunderstorms and Rain
10:37 AM 66.2 °F - 64.4 °F 94% 29.93 in 9.0 mi Calm Calm - N/A Rain Rain
10:38 AM 66.2 °F - 64.4 °F 94% 29.93 in 8.0 mi North 1.2 mph - N/A Rain , Thunderstorm Thunderstorms and Rain
10:40 AM 66.2 °F - 64.4 °F 94% 29.92 in 6.0 mi North 1.2 mph - N/A Rain Rain
10:58 AM 66.0 °F - 65.7 °F 99% 29.83 in 9.0 mi East 15.0 mph - 0.82 in Rain Light Rain
11:10 AM 66.2 °F - 66.2 °F 100% 29.81 in 10.0 mi ESE 12.7 mph - N/A   Mostly Cloudy
11:32 AM 68.0 °F - 64.4 °F 88% 29.77 in 10.0 mi ESE 17.3 mph - N/A   Clear
11:58 AM 72.5 °F - 64.0 °F 75% 29.70 in 10.0 mi ENE 11.5 mph 33.4 mph 0.01 in   Clear
12:58 PM 73.4 °F - 66.2 °F 78% 29.82 in 10.0 mi NW 10.4 mph - N/A   Clear
1:58 PM 75.2 °F - 68.4 °F 79% 29.82 in 10.0 mi South 3.5 mph - N/A   Partly Cloudy
2:58 PM 78.4 °F - 68.9 °F 72% 29.83 in 10.0 mi SE 10.4 mph - N/A   Scattered Clouds
3:58 PM 80.6 °F 83.9 °F 70.2 °F 70% 29.80 in 10.0 mi SE 13.8 mph - N/A   Clear
4:58 PM 82.0 °F 87.7 °F 73.2 °F 75% 29.78 in 10.0 mi ESE 15.0 mph - N/A   Clear
5:02 PM 82.4 °F 88.2 °F 73.4 °F 74% 29.79 in 10.0 mi ESE 13.8 mph - N/A   Clear
5:58 PM 81.3 °F 86.1 °F 72.9 °F 75% 29.78 in 10.0 mi ESE 15.0 mph - N/A   Clear
6:58 PM 82.2 °F 87.1 °F 72.1 °F 71% 29.76 in 10.0 mi ESE 12.7 mph - N/A   Clear
7:58 PM 80.8 °F 85.6 °F 73.4 °F 78% 29.77 in 10.0 mi ESE 15.0 mph - N/A   Scattered Clouds
8:58 PM 78.1 °F - 72.3 °F 82% 29.76 in 10.0 mi ESE 11.5 mph - N/A   Clear
9:58 PM 77.0 °F - 72.3 °F 85% 29.78 in 10.0 mi SE 12.7 mph - N/A   Scattered Clouds
10:58 PM 76.1 °F - 71.6 °F 86% 29.78 in 10.0 mi ESE 10.4 mph - N/A   Clear
11:58 PM 75.4 °F - 70.3 °F 84% 29.74 in 10.0 mi ESE 10.4 mph - N/A   Clear